• In Hungary
  • List of Countries
  • For 7 days
  • Water Temperature
  • Satellite Maps
  • Weather Map
  • News
  • Weather Widgets
  • user-avatar
    Login

    Hourly Weather Dyakonovo

    Today, 21 October, Sunday

    Time Temperature Precipitation Wind Pressure Humidity
    00:00 +5°C° 0 mm 2 mps 755 mmHg 85%
    01:00 +4°C° 0 mm 2 mps 755 mmHg 87%
    02:00 +5°C° 0 mm 1 mps 755 mmHg 89%
    03:00 +5°C° 0 mm 1 mps 756 mmHg 91%
    04:00 +4°C° 0 mm 1 mps 756 mmHg 92%
    05:00 +3°C° 0 mm 2 mps 756 mmHg 92%
    06:00 +3°C° 0 mm 2 mps 756 mmHg 93%
    07:00 +4°C° 0 mm 2 mps 756 mmHg 90%
    08:00 +4°C° 0 mm 2 mps 757 mmHg 86%
    09:00 +5°C° 0 mm 2 mps 757 mmHg 83%
    10:00 +6°C° 0 mm 2 mps 757 mmHg 76%
    11:00 +7°C° 0 mm 2 mps 757 mmHg 69%
    12:00 +9°C° 0 mm 2 mps 757 mmHg 63%
    13:00 +9°C° 0 mm 2 mps 757 mmHg 61%
    14:00 +9°C° 0 mm 2 mps 757 mmHg 59%
    15:00 +10°C° 0 mm 2 mps 757 mmHg 57%
    16:00 +8°C° 0 mm 2 mps 758 mmHg 62%
    17:00 +8°C° 0 mm 1 mps 758 mmHg 67%
    18:00 +7°C° 0 mm 1 mps 758 mmHg 72%
    19:00 +7°C° 0 mm 1 mps 758 mmHg 75%
    20:00 +6°C° 0 mm 1 mps 758 mmHg 77%
    21:00 +6°C° 0 mm 1 mps 758 mmHg 79%
    22:00 +5°C° 0 mm 1 mps 759 mmHg 81%
    23:00 +5°C° 0 mm 1 mps 759 mmHg 83%

    Tomorrow, 22 October, Monday

    Time Temperature Precipitation Wind Pressure Humidity
    00:00 +5°C° 0 mm 1 mps 759 mmHg 85%
    01:00 +4°C° 0 mm 1 mps 759 mmHg 86%
    02:00 +4°C° 0 mm 1 mps 759 mmHg 87%
    03:00 +4°C° 0 mm 1 mps 759 mmHg 88%
    04:00 +4°C° 0 mm 1 mps 758 mmHg 89%
    05:00 +4°C° 0 mm 1 mps 758 mmHg 89%
    06:00 +3°C° 0 mm 1 mps 758 mmHg 90%
    07:00 +4°C° 0 mm 1 mps 758 mmHg 87%
    08:00 +5°C° 0 mm 1 mps 758 mmHg 84%
    09:00 +6°C° 0 mm 1 mps 758 mmHg 80%
    10:00 +7°C° 0 mm 1 mps 758 mmHg 74%
    11:00 +8°C° 0 mm 1 mps 758 mmHg 67%
    12:00 +10°C° 0 mm 1 mps 757 mmHg 61%
    13:00 +9°C° 0 mm 2 mps 757 mmHg 59%
    14:00 +10°C° 0 mm 2 mps 756 mmHg 57%
    15:00 +10°C° 0 mm 2 mps 755 mmHg 55%
    16:00 +9°C° 0 mm 2 mps 755 mmHg 60%
    17:00 +8°C° 0 mm 2 mps 755 mmHg 66%
    18:00 +7°C° 0 mm 2 mps 754 mmHg 71%
    19:00 +6°C° 0 mm 2 mps 754 mmHg 73%
    20:00 +6°C° 0 mm 2 mps 754 mmHg 76%
    21:00 +6°C° 0 mm 2 mps 753 mmHg 78%
    22:00 +6°C° 0 mm 2 mps 753 mmHg 80%
    23:00 +6°C° 0 mm 2 mps 752 mmHg 83%

    Day after tomorrow, 23 October, Tuesday

    Time Temperature Precipitation Wind Pressure Humidity
    00:00 +6°C° 0 mm 2 mps 752 mmHg 85%
    01:00 +6°C° 0 mm 2 mps 751 mmHg 87%
    02:00 +6°C° 0 mm 2 mps 751 mmHg 88%
    03:00 +6°C° 0 mm 2 mps 750 mmHg 90%
    04:00 +6°C° 0.2 mm 2 mps 749 mmHg 90%
    05:00 +6°C° 0.2 mm 2 mps 748 mmHg 90%
    06:00 +7°C° 0.2 mm 1 mps 748 mmHg 90%
    07:00 +6°C° 0.6 mm 2 mps 747 mmHg 88%
    08:00 +6°C° 0.6 mm 2 mps 747 mmHg 87%
    09:00 +6°C° 0.6 mm 2 mps 746 mmHg 86%
    10:00 +7°C° 0.3 mm 2 mps 746 mmHg 80%
    11:00 +7°C° 0.3 mm 3 mps 745 mmHg 75%
    12:00 +8°C° 0.3 mm 3 mps 745 mmHg 69%
    13:00 +8°C° 0 mm 3 mps 744 mmHg 66%
    14:00 +9°C° 0 mm 3 mps 744 mmHg 64%
    15:00 +9°C° 0 mm 3 mps 743 mmHg 62%
    16:00 +8°C° 0 mm 3 mps 743 mmHg 67%
    17:00 +8°C° 0 mm 3 mps 743 mmHg 73%
    18:00 +7°C° 0 mm 2 mps 743 mmHg 79%
    19:00 +6°C° 0 mm 2 mps 742 mmHg 81%
    20:00 +5°C° 0 mm 3 mps 742 mmHg 82%
    21:00 +5°C° 0 mm 3 mps 741 mmHg 84%
    22:00 +5°C° 0 mm 3 mps 741 mmHg 84%
    23:00 +5°C° 0 mm 3 mps 740 mmHg 84%

    24 October, Wednesday

    Time Temperature Precipitation Wind Pressure Humidity
    00:00 +5°C° 0 mm 4 mps 740 mmHg 84%
    01:00 +5°C° 0.1 mm 4 mps 739 mmHg 85%
    02:00 +5°C° 0.1 mm 4 mps 739 mmHg 85%
    03:00 +5°C° 0.1 mm 4 mps 738 mmHg 85%
    04:00 +5°C° 0.1 mm 4 mps 737 mmHg 84%
    05:00 +5°C° 0.1 mm 4 mps 737 mmHg 84%
    06:00 +5°C° 0.1 mm 4 mps 736 mmHg 84%
    07:00 +5°C° 0 mm 4 mps 736 mmHg 81%
    08:00 +5°C° 0 mm 5 mps 735 mmHg 79%
    09:00 +6°C° 0 mm 5 mps 735 mmHg 77%
    10:00 +6°C° 0.2 mm 5 mps 735 mmHg 75%
    11:00 +5°C° 0.2 mm 6 mps 734 mmHg 72%
    12:00 +7°C° 0.2 mm 6 mps 734 mmHg 70%
    13:00 +7°C° 0.2 mm 6 mps 734 mmHg 70%
    14:00 +7°C° 0.2 mm 6 mps 733 mmHg 70%
    15:00 +7°C° 0.2 mm 6 mps 732 mmHg 70%
    16:00 +7°C° 0.5 mm 6 mps 732 mmHg 73%
    17:00 +7°C° 0.5 mm 6 mps 731 mmHg 77%
    18:00 +5°C° 0.5 mm 6 mps 731 mmHg 80%
    19:00 +7°C° 0.4 mm 6 mps 730 mmHg 81%
    20:00 +7°C° 0.4 mm 6 mps 730 mmHg 82%
    21:00 +7°C° 0.4 mm 6 mps 730 mmHg 83%
    22:00 +7°C° 0.2 mm 5 mps 729 mmHg 84%
    23:00 +7°C° 0.2 mm 5 mps 729 mmHg 85%

    25 October, Thursday

    Time Temperature Precipitation Wind Pressure Humidity
    00:00 +6°C° 0.2 mm 5 mps 729 mmHg 86%
    01:00 +6°C° 0 mm 5 mps 729 mmHg 86%
    02:00 +6°C° 0 mm 5 mps 729 mmHg 87%
    03:00 +6°C° 0 mm 5 mps 730 mmHg 88%
    04:00 +6°C° 0.1 mm 4 mps 730 mmHg 88%
    05:00 +6°C° 0.1 mm 4 mps 730 mmHg 88%
    06:00 +5°C° 0.1 mm 4 mps 730 mmHg 89%
    07:00 +6°C° 0.2 mm 4 mps 730 mmHg 87%
    08:00 +6°C° 0.2 mm 4 mps 731 mmHg 86%
    09:00 +6°C° 0.2 mm 4 mps 731 mmHg 84%
    10:00 +6°C° 0.1 mm 4 mps 731 mmHg 79%
    11:00 +7°C° 0.1 mm 4 mps 731 mmHg 75%
    12:00 +8°C° 0.1 mm 3 mps 731 mmHg 70%
    13:00 +8°C° 0.2 mm 3 mps 731 mmHg 69%
    14:00 +8°C° 0.2 mm 3 mps 731 mmHg 68%
    15:00 +8°C° 0.2 mm 3 mps 731 mmHg 66%
    16:00 +7°C° 0.1 mm 3 mps 731 mmHg 69%
    17:00 +5°C° 0.1 mm 3 mps 731 mmHg 72%
    18:00 +6°C° 0.1 mm 2 mps 731 mmHg 75%
    19:00 +5°C° 0 mm 2 mps 731 mmHg 77%
    20:00 +3°C° 0 mm 3 mps 731 mmHg 80%
    21:00 +3°C° 0 mm 3 mps 731 mmHg 82%
    22:00 +3°C° 0.1 mm 3 mps 731 mmHg 84%
    23:00 +2°C° 0.1 mm 3 mps 732 mmHg 86%

    26 October, Friday

    Time Temperature Precipitation Wind Pressure Humidity
    00:00 +2°C° 0.1 mm 3 mps 732 mmHg 87%
    01:00 +2°C° 0.1 mm 3 mps 732 mmHg 88%
    02:00 +2°C° 0.1 mm 3 mps 732 mmHg 89%
    03:00 +1°C° 0.1 mm 4 mps 732 mmHg 90%
    04:00 +1°C° 0 mm 4 mps 732 mmHg 89%
    05:00 +1°C° 0 mm 4 mps 733 mmHg 89%
    06:00 +1°C° 0 mm 4 mps 733 mmHg 88%
    07:00 +1°C° 0 mm 5 mps 733 mmHg 86%
    08:00 +2°C° 0 mm 5 mps 734 mmHg 83%
    09:00 +2°C° 0 mm 6 mps 735 mmHg 80%
    10:00 +3°C° 0 mm 5 mps 735 mmHg 77%
    11:00 +3°C° 0 mm 5 mps 735 mmHg 75%
    12:00 +5°C° 0 mm 5 mps 736 mmHg 72%
    13:00 +5°C° 0.1 mm 5 mps 736 mmHg 71%
    14:00 +5°C° 0.1 mm 4 mps 736 mmHg 70%
    15:00 +5°C° 0.1 mm 4 mps 736 mmHg 69%
    16:00 +4°C° 0 mm 3 mps 737 mmHg 72%
    17:00 +4°C° 0 mm 2 mps 737 mmHg 76%
    18:00 +4°C° 0 mm 2 mps 737 mmHg 80%
    19:00 +3°C° 0 mm 2 mps 738 mmHg 81%
    20:00 +3°C° 0 mm 2 mps 738 mmHg 83%
    21:00 +2°C° 0 mm 2 mps 738 mmHg 84%
    22:00 +2°C° 0 mm 2 mps 738 mmHg 86%
    23:00 +2°C° 0 mm 2 mps 739 mmHg 87%
    Show more